Flag for India Weather past 2 weeks in Muktsar, Punjab, India

Now
84 °F

Passing clouds.


Feels Like: 96 °F
Forecast: 90 / 103 °F
Wind: 8 mph from Southeast

Location: Lahore Airport

Current Time: Jul 24, 2014 at 2:06:57 AM

Latest Report: Jul 24, 2014 at 1:25 AM


Visibility: 2 mi

Pressure: 29.50 "Hg

Humidity: 84%

Dew point: 79 °F

Location of MuktsarLocation

Historic Weather in Muktsar — Graph

°F

Muktsar temperature yesterday

Maximum temperature yesterday: 99 °F (at 2:55 PM)
Minimum temperature yesterday: 84 °F (at 10:55 PM)
Average temperature yesterday: 90 °F

Past Weeks' High & Low Weather Summary

 TemperatureHumidityPressure
High109 °F (Jul 12, 2:55 PM)100% (Jul 18, 12:59 PM)29.56 "Hg (Jul 18, 12:59 PM)
Low77 °F (Jul 17, 1:29 PM)12% (Jul 21, 1:29 PM)29.33 "Hg (Jul 15, 6:25 PM)
Average92 °F59%29.46 "Hg
* Reported Jul 8 11:30 PM — Jul 24 12:25 AM, Muktsar, Weather by CustomWeather, © 2014

Note: Actual official high and low records may vary slightly from our data, if they occured in-between our weather recording intervals... More about our weather records

Advertising

Muktsar weather history for previous 24 hours

 ConditionsComfort  
Time TempWeatherWind HumidityBarometerVisibility
12:25 AM
Jul 24
84 °FPassing clouds.8 mph84%29.53 "Hg2 mi
11:55 PM
Jul 23
84 °FPassing clouds.10 mph84%29.53 "Hg2 mi
11:25 PM84 °FPassing clouds.9 mph84%29.53 "Hg2 mi
10:55 PM84 °FPassing clouds.9 mph84%29.50 "Hg2 mi
10:25 PM86 °FPassing clouds.9 mph79%29.50 "Hg2 mi
9:55 PM86 °FPartly cloudy.3 mph84%29.50 "Hg2 mi
9:25 PM86 °FPartly cloudy.10 mph84%29.50 "Hg2 mi
8:55 PM86 °FPartly cloudy.12 mph79%29.47 "Hg2 mi
8:25 PM88 °FPartly cloudy.9 mph75%29.47 "Hg2 mi
7:55 PM88 °FPartly cloudy.9 mph75%29.47 "Hg2 mi
7:25 PM88 °FBroken clouds.10 mph75%29.45 "Hg2 mi
6:25 PM90 °FBroken clouds.12 mph71%29.45 "Hg2 mi
5:55 PM91 °FBroken clouds.12 mph67%29.45 "Hg2 mi
5:25 PM95 °FBroken clouds.13 mph56%29.45 "Hg2 mi
4:55 PM97 °FScattered clouds.12 mph53%29.45 "Hg3 mi
4:25 PM99 °FScattered clouds.8 mph50%29.45 "Hg4 mi
3:55 PM99 °FScattered clouds.7 mph47%29.45 "Hg4 mi
3:25 PM99 °FScattered clouds.7 mph47%29.45 "Hg4 mi
2:55 PM99 °FScattered clouds.9 mph47%29.45 "Hg4 mi
9:55 AM91 °FScattered clouds.7 mph63%29.50 "Hg2 mi
9:25 AM91 °FScattered clouds.9 mph63%29.50 "Hg2 mi
8:55 AM91 °FScattered clouds.9 mph59%29.50 "Hg2 mi
8:25 AM90 °FScattered clouds.10 mph63%29.50 "Hg2 mi
7:55 AM88 °FScattered clouds.9 mph66%29.50 "Hg2 mi
7:25 AM88 °FScattered clouds.8 mph66%29.47 "Hg2 mi
6:55 AM88 °FScattered clouds.6 mph66%29.47 "Hg2 mi
6:25 AM86 °FScattered clouds.6 mph70%29.47 "Hg2 mi
5:25 AM86 °FPassing clouds.7 mph70%29.45 "Hg2 mi
Weather by CustomWeather, © 2014

See weather overviewHow to use our weather pages